FW1310 Weather Reports


Display with metric or nautical units.
time (UTC)temp
F
wind
direction
speed
MPH
gust
MPH
rain 1hr
in
rain 24hr
in
rain mn
in
humidity
%
barometer
mb
20211207185508 67 142 6.0 8.0 0.00 0.05 0.00 40 1017.3
20211207185008 67 58 3.0 6.0 0.00 0.05 0.00 40 1017.3
20211207184508 67 51 4.0 6.0 0.00 0.05 0.00 40 1017.5
20211207184008 66 338 2.0 3.0 0.00 0.05 0.00 42 1017.6
20211207183507 65 113 3.0 5.0 0.00 0.05 0.00 42 1017.6
20211207183008 65 113 3.0 7.0 0.00 0.05 0.00 42 1017.9
20211207182509 65 128 5.0 9.0 0.00 0.05 0.00 42 1018.2
20211207182009 64 135 4.0 9.0 0.00 0.05 0.00 44 1018.3
20211207181508 65 23 6.0 9.0 0.00 0.05 0.00 44 1018.3
20211207181008 64 119 6.0 7.0 0.00 0.05 0.00 43 1018.6
20211207180508 64 42 3.0 6.0 0.00 0.05 0.00 43 1018.9
20211207180008 63 316 3.0 6.0 0.00 0.05 0.00 44 1019.3
20211207175508 63 23 5.0 6.0 0.00 0.05 0.00 43 1019.3
20211207175009 62 158 0.0 3.0 0.00 0.05 0.00 45 1019.4
20211207174508 62 96 2.0 6.0 0.00 0.05 0.00 43 1019.6
20211207174009 62 42 4.0 6.0 0.00 0.05 0.00 44 1019.6
20211207173523 61 23 3.0 3.0 0.00 0.05 0.00 44 1020.0
20211207173009 61 68 3.0 5.0 0.00 0.05 0.00 44 1020.0
20211207172508 60 24 3.0 5.0 0.00 0.05 0.00 45 1019.6
20211207172008 59 236 3.0 6.0 0.00 0.05 0.00 46 1019.6
20211207171508 59 31 5.0 8.0 0.00 0.05 0.00 47 1019.6
20211207171008 59 43 3.0 8.0 0.00 0.05 0.00 46 1020.0
20211207170508 60 23 3.0 6.0 0.00 0.05 0.00 45 1020.0
20211207170008 59 114 1.0 3.0 0.00 0.05 0.00 45 1020.3
20211207165511 59 59 2.0 3.0 0.00 0.05 0.00 46 1020.5
20211207165008 58 315 3.0 6.0 0.00 0.05 0.00 47 1020.7
20211207164509 58 315 3.0 5.0 0.00 0.05 0.00 47 1020.7
20211207164008 57 45 5.0 5.0 0.00 0.05 0.00 46 1020.7
20211207163510 57 86 6.0 7.0 0.00 0.05 0.00 47 1020.7
20211207163008 57 90 5.0 6.0 0.00 0.05 0.00 45 1020.7
20211207162514 58 270 2.0 6.0 0.00 0.05 0.00 44 1021.0
20211207162009 57 270 1.0 5.0 0.00 0.05 0.00 45 1021.0
20211207161508 57 308 2.0 3.0 0.00 0.05 0.00 45 1021.0
20211207161009 56 53 2.0 3.0 0.00 0.05 0.00 46 1021.3
20211207160508 57 248 1.0 3.0 0.00 0.05 0.00 44 1021.3
20211207160008 57 312 0.0 3.0 0.00 0.05 0.00 44 1021.3
20211207155508 56 299 1.0 2.0 0.00 0.05 0.00 44 1021.3
20211207155009 55 176 0.0 1.0 0.00 0.05 0.00 47 1021.3
20211207154511 54 224 0.0 2.0 0.00 0.05 0.00 49 1021.3
20211207154008 55 270 2.0 2.0 0.00 0.05 0.00 45 1021.0
20211207153510 55 225 2.0 3.0 0.00 0.05 0.00 46 1021.0
20211207153008 55 245 0.0 3.0 0.00 0.05 0.00 46 1021.2
20211207152508 54 258 1.0 3.0 0.00 0.05 0.00 47 1021.0
20211207152008 53 156 0.0 0.0 0.00 0.05 0.00 50 1021.0
20211207151523 52 180 0.0 1.0 0.00 0.05 0.00 49 1021.0
20211207151009 53 180 0.0 2.0 0.00 0.05 0.00 47 1020.7
20211207150508 52 293 0.0 2.0 0.00 0.05 0.00 49 1020.7
20211207150008 50 203 0.0 0.0 0.00 0.05 0.00 51 1020.8
20211207145508 49 180 0.0 0.0 0.00 0.05 0.00 51 1020.7
20211207145008 48 180 0.0 0.0 0.00 0.05 0.00 53 1020.7
20211207144508 47 180 0.0 0.0 0.00 0.05 0.00 56 1020.7
20211207144008 46 166 0.0 0.0 0.00 0.05 0.00 58 1021.2
20211207143509 46 180 0.0 0.0 0.00 0.05 0.00 59 1021.3
20211207143008 44 180 1.0 1.0 0.00 0.05 0.00 59 1021.0
20211207142508 44 158 0.0 0.0 0.00 0.05 0.00 62 1021.2
20211207142008 43 180 0.0 0.0 0.00 0.05 0.00 62 1021.0
20211207141508 41 135 0.0 0.0 0.00 0.05 0.00 66 1021.0
20211207141011 40 158 0.0 0.0 0.00 0.05 0.00 69 1021.0
20211207140508 39 98 0.0 1.0 0.00 0.05 0.00 70 1021.0
20211207140015 38 51 1.0 3.0 0.00 0.05 0.00 72 1021.0
20211207135508 38 180 0.0 0.0 0.00 0.05 0.00 72 1021.0
20211207135008 38 158 0.0 0.0 0.00 0.05 0.00 72 1021.3
20211207134507 38 0 0.0 3.0 0.00 0.05 0.00 71 1021.4
20211207134023 38 113 3.0 3.0 0.00 0.05 0.00 71 1021.5
20211207133508 38 180 0.0 0.0 0.00 0.05 0.00 71 1021.3
20211207133008 38 158 0.0 2.0 0.00 0.05 0.00 71 1021.3
20211207132508 38 166 0.0 2.0 0.00 0.05 0.00 71 1021.3
20211207132008 38 180 0.0 3.0 0.00 0.05 0.00 70 1021.1
20211207131509 38 113 1.0 2.0 0.00 0.05 0.00 70 1021.0
20211207131008 38 136 1.0 2.0 0.00 0.05 0.00 70 1020.7
20211207130508 38 148 0.0 2.0 0.00 0.05 0.00 71 1020.7
20211207130008 38 166 2.0 2.0 0.00 0.05 0.00 72 1020.7
20211207125508 38 180 0.0 0.0 0.00 0.05 0.00 73 1020.7
20211207125008 38 158 0.0 0.0 0.00 0.05 0.00 72 1020.7
20211207124508 38 141 0.0 2.0 0.00 0.05 0.00 72 1020.7
20211207124008 38 135 2.0 2.0 0.00 0.05 0.00 71 1020.7
20211207123508 38 156 0.0 1.0 0.00 0.05 0.00 71 1020.7
20211207123008 38 158 0.0 0.0 0.00 0.05 0.00 70 1020.7
20211207122508 38 175 0.0 0.0 0.00 0.05 0.00 68 1020.7
20211207122016 39 180 0.0 0.0 0.00 0.05 0.00 66 1020.7
20211207121508 39 170 0.0 0.0 0.00 0.05 0.00 64 1020.4
20211207121008 39 199 0.0 2.0 0.00 0.05 0.00 65 1020.6
20211207120509 39 203 1.0 2.0 0.00 0.05 0.00 67 1020.7
20211207120008 38 197 0.0 0.0 0.00 0.05 0.00 70 1020.7
20211207115508 38 153 0.0 0.0 0.00 0.05 0.00 70 1020.9
20211207115008 38 180 0.0 0.0 0.00 0.05 0.00 71 1021.0
20211207114508 38 180 0.0 0.0 0.00 0.05 0.00 72 1021.0
20211207114008 38 106 0.0 0.0 0.00 0.05 0.00 70 1021.2
20211207113508 38 119 0.0 0.0 0.00 0.05 0.00 70 1021.0
20211207113008 38 135 0.0 0.0 0.00 0.05 0.00 70 1021.0
20211207112508 38 177 0.0 2.0 0.00 0.05 0.00 70 1021.0
20211207112023 38 170 0.0 3.0 0.00 0.05 0.00 70 1021.2
20211207111509 38 172 2.0 3.0 0.00 0.05 0.00 69 1020.7
20211207111008 38 113 0.0 3.0 0.00 0.05 0.00 68 1020.7
20211207110508 38 201 2.0 3.0 0.00 0.05 0.00 69 1020.7
20211207110008 38 158 0.0 2.0 0.00 0.05 0.00 68 1021.0
20211207105508 38 180 0.0 3.0 0.00 0.05 0.00 68 1021.0
20211207105008 38 180 0.0 1.0 0.00 0.05 0.00 67 1021.0
20211207104508 38 180 1.0 3.0 0.00 0.05 0.00 66 1021.3
20211207104008 38 173 0.0 3.0 0.00 0.05 0.00 66 1021.5
20211207103508 38 180 1.0 3.0 0.00 0.05 0.00 66 1021.7
20211207103008 38 180 1.0 3.0 0.00 0.05 0.00 67 1021.7
20211207102511 38 113 2.0 3.0 0.00 0.05 0.00 67 1022.1
20211207102008 38 142 3.0 3.0 0.00 0.05 0.00 68 1022.4
20211207101508 38 176 2.0 3.0 0.00 0.05 0.00 68 1022.4
20211207101008 38 180 2.0 3.0 0.00 0.05 0.00 68 1022.4
20211207100507 38 164 2.0 3.0 0.00 0.05 0.00 69 1022.4
20211207100008 38 248 2.0 3.0 0.00 0.05 0.00 69 1022.4
20211207095508 38 130 1.0 3.0 0.00 0.05 0.00 69 1022.7
20211207095008 38 145 2.0 3.0 0.00 0.05 0.00 69 1022.5
20211207094508 38 135 1.0 3.0 0.00 0.05 0.00 68 1022.4
20211207094008 38 135 1.0 3.0 0.00 0.05 0.00 69 1022.4
20211207093508 38 139 2.0 3.0 0.00 0.05 0.00 69 1022.4
20211207093018 38 147 3.0 3.0 0.00 0.05 0.00 69 1022.4
20211207092508 38 135 0.0 3.0 0.00 0.05 0.00 69 1022.4
20211207092008 38 113 2.0 3.0 0.00 0.05 0.00 69 1022.4
20211207091513 38 180 1.0 3.0 0.00 0.05 0.00 69 1022.4
20211207091008 38 161 3.0 3.0 0.00 0.05 0.00 68 1022.4
20211207090508 38 113 1.0 3.0 0.00 0.05 0.00 68 1022.4
20211207090008 38 158 2.0 3.0 0.00 0.05 0.00 67 1022.4
20211207085511 38 124 3.0 5.0 0.00 0.05 0.00 66 1022.0
20211207085008 38 166 1.0 2.0 0.00 0.05 0.00 66 1022.0
20211207084508 38 159 0.0 1.0 0.00 0.05 0.00 66 1022.6
20211207084008 38 113 0.0 3.0 0.00 0.05 0.00 65 1022.7
20211207083508 38 143 1.0 3.0 0.00 0.05 0.00 66 1022.6
20211207083008 38 165 0.0 3.0 0.00 0.05 0.00 66 1022.1
20211207082516 38 179 1.0 3.0 0.00 0.05 0.00 66 1022.3
20211207082008 38 135 1.0 3.0 0.00 0.05 0.00 66 1022.4
20211207081508 38 158 1.0 2.0 0.00 0.05 0.00 66 1022.4
20211207081008 38 203 0.0 2.0 0.00 0.05 0.00 66 1022.4
20211207080523 39 169 1.0 2.0 0.00 0.05 0.00 66 1022.4
20211207080008 39 116 3.0 3.0 0.00 0.05 0.00 66 1022.1
20211207075508 39 203 1.0 3.0 0.00 0.05 0.00 65 1022.0
20211207075008 39 159 1.0 3.0 0.00 0.05 0.00 64 1022.0
20211207074508 39 124 0.0 3.0 0.00 0.05 0.00 64 1022.4
20211207074008 39 139 2.0 3.0 0.00 0.05 0.00 63 1022.4
20211207073508 39 203 1.0 3.0 0.00 0.05 0.00 63 1022.4
20211207073008 39 113 0.0 2.0 0.00 0.05 0.00 63 1022.4
20211207072508 39 113 0.0 0.0 0.00 0.05 0.00 63 1022.4
20211207072008 39 195 0.0 2.0 0.00 0.05 0.00 62 1022.7
20211207071508 39 122 0.0 3.0 0.00 0.05 0.00 62 1022.7
20211207071008 39 180 0.0 3.0 0.00 0.05 0.00 61 1022.7
20211207070508 39 137 2.0 3.0 0.00 0.05 0.00 61 1022.7
20211207070008 40 122 2.0 3.0 0.00 0.05 0.00 61 1023.0
20211207065508 40 180 2.0 2.0 0.00 0.05 0.00 60 1022.7
20211207065008 40 158 0.0 3.0 0.00 0.05 0.00 59 1022.7
20211207064508 40 145 2.0 3.0 0.00 0.05 0.00 59 1022.7
20211207064008 40 124 0.0 1.0 0.00 0.05 0.00 59 1022.9
20211207063508 40 139 0.0 2.0 0.00 0.05 0.00 58 1023.0
20211207063008 40 113 1.0 3.0 0.00 0.05 0.00 58 1023.0
20211207062508 40 158 1.0 2.0 0.00 0.05 0.00 58 1023.4
20211207062009 40 142 1.0 2.0 0.00 0.05 0.00 58 1023.4
20211207061508 40 124 0.0 1.0 0.00 0.05 0.00 58 1023.1
20211207061012 40 180 0.0 1.0 0.00 0.05 0.00 58 1023.4
20211207060508 40 135 0.0 2.0 0.00 0.05 0.00 58 1023.4
20211207060008 40 158 0.0 0.0 0.00 0.05 0.00 58 1023.4
20211207055507 40 113 0.0 3.0 0.00 0.05 0.05 57 1023.4
20211207055008 40 116 2.0 3.0 0.00 0.05 0.05 59 1023.4
20211207054508 40 135 0.0 1.0 0.00 0.05 0.05 59 1023.4
20211207054008 40 113 2.0 2.0 0.00 0.05 0.05 58 1023.4
20211207053508 40 150 0.0 2.0 0.00 0.05 0.05 58 1023.4
20211207053015 41 118 0.0 2.0 0.00 0.05 0.05 59 1023.4
20211207052508 41 180 0.0 0.0 0.00 0.05 0.05 58 1023.4
20211207052008 41 158 0.0 0.0 0.00 0.05 0.05 58 1023.7
20211207051508 41 158 0.0 0.0 0.00 0.05 0.05 58 1023.7
20211207051011 41 140 0.0 2.0 0.00 0.05 0.05 57 1023.7
20211207050508 41 180 0.0 2.0 0.00 0.05 0.05 57 1024.0
20211207050008 42 135 0.0 2.0 0.00 0.05 0.05 57 1024.0
20211207045508 42 163 1.0 2.0 0.00 0.05 0.05 56 1023.8
20211207045023 42 120 0.0 3.0 0.00 0.05 0.05 56 1024.0
20211207044509 42 180 2.0 3.0 0.00 0.05 0.05 56 1024.0
20211207044009 42 203 1.0 2.0 0.00 0.05 0.05 55 1024.0
20211207043508 43 143 0.0 2.0 0.00 0.05 0.05 55 1024.0
20211207043009 43 163 0.0 3.0 0.00 0.05 0.05 53 1024.0
20211207042507 43 203 1.0 3.0 0.00 0.05 0.05 53 1024.0
20211207042015 44 135 3.0 3.0 0.00 0.05 0.05 52 1024.0
20211207041508 44 107 1.0 3.0 0.00 0.05 0.05 51 1024.1
20211207041023 44 188 3.0 5.0 0.00 0.05 0.05 49 1024.4
20211207040508 45 115 3.0 5.0 0.00 0.05 0.05 49 1024.1
20211207040008 45 158 4.0 5.0 0.00 0.05 0.05 48 1024.0
20211207035508 45 214 3.0 3.0 0.00 0.05 0.05 48 1024.0
20211207035023 45 172 3.0 3.0 0.00 0.05 0.05 50 1024.2
20211207034508 45 158 0.0 3.0 0.00 0.05 0.05 50 1024.4
20211207034010 45 203 1.0 2.0 0.00 0.05 0.05 49 1024.4
20211207033509 45 160 1.0 5.0 0.00 0.05 0.05 49 1024.4
20211207033010 46 188 4.0 5.0 0.00 0.05 0.05 47 1024.0
20211207032509 46 149 5.0 5.0 0.00 0.05 0.05 47 1024.2
20211207032010 46 115 2.0 5.0 0.00 0.05 0.05 49 1024.4
20211207031010 46 180 2.0 6.0 0.00 0.05 0.05 48 1024.4
20211207030010 46 135 0.0 6.0 0.00 0.05 0.05 47 1024.7
20211207025508 46 203 3.0 3.0 0.00 0.05 0.05 46 1024.7
20211207025008 47 180 3.0 3.0 0.00 0.05 0.05 46 1024.5
20211207024523 47 191 2.0 6.0 0.00 0.05 0.05 46 1024.7
20211207024008 47 201 3.0 6.0 0.00 0.05 0.05 45 1024.7
20211207023508 47 180 4.0 5.0 0.00 0.05 0.05 45 1024.7
20211207023008 47 180 3.0 6.0 0.00 0.05 0.05 45 1024.7
20211207022509 47 165 2.0 3.0 0.00 0.05 0.05 46 1025.1
20211207022008 47 188 3.0 3.0 0.00 0.05 0.05 46 1025.1
20211207021509 47 203 2.0 3.0 0.00 0.05 0.05 44 1025.1
20211207021009 48 135 3.0 6.0 0.00 0.05 0.05 44 1024.7
20211207020509 48 195 3.0 3.0 0.05 0.05 0.05 44 1025.1
20211207020009 48 180 3.0 6.0 0.05 0.05 0.05 44 1024.9
20211207015508 48 224 3.0 6.0 0.05 0.05 0.05 43 1024.7
20211207015010 48 180 6.0 6.0 0.05 0.05 0.05 43 1024.7
20211207014509 49 203 5.0 9.0 0.05 0.05 0.05 43 1024.7
20211207014010 49 166 5.0 9.0 0.05 0.05 0.05 42 1024.5
20211207013524 49 207 5.0 7.0 0.05 0.05 0.05 42 1024.7
20211207013010 49 163 5.0 8.0 0.05 0.05 0.05 42 1024.7
20211207012508 49 183 5.0 7.0 0.05 0.05 0.05 43 1024.7
20211207012008 49 180 5.0 5.0 0.05 0.05 0.05 43 1024.7
20211207011509 49 180 5.0 6.0 0.05 0.05 0.05 43 1024.7
20211207011008 49 198 6.0 7.0 0.05 0.05 0.05 42 1024.5
20211207010511 50 203 4.0 5.0 0.05 0.05 0.05 42 1024.7
20211207005005 50 193 5.0 5.0 0.00 0.05 0.05 42 1024.7
20211207004505 50 173 3.0 7.0 0.00 0.05 0.05 42 1024.7
20211207004005 51 158 5.0 5.0 0.00 0.05 0.05 42 1024.4
20211207003505 51 180 3.0 6.0 0.00 0.05 0.05 41 1024.4
20211207003013 51 203 3.0 5.0 0.00 0.05 0.05 41 1024.4
20211207002504 51 175 3.0 6.0 0.00 0.05 0.05 40 1024.4
20211207002004 51 180 4.0 7.0 0.00 0.05 0.05 40 1024.4
20211207001505 52 225 4.0 7.0 0.00 0.05 0.05 40 1024.4
20211207001022 52 180 5.0 9.0 0.00 0.05 0.05 40 1024.4
20211207000505 52 180 4.0 9.0 0.00 0.05 0.05 41 1024.4
20211207000012 52 135 3.0 8.0 0.00 0.05 0.05 40 1024.4
20211206235505 53 270 6.0 7.0 0.00 0.05 0.05 40 1024.4
20211206235004 53 167 3.0 6.0 0.00 0.05 0.05 40 1024.2
20211206234505 53 203 5.0 6.0 0.00 0.05 0.05 40 1024.3
20211206234005 54 180 3.0 3.0 0.00 0.05 0.05 39 1024.0
20211206233504 54 156 5.0 6.0 0.00 0.05 0.05 38 1024.0
20211206233005 55 201 6.0 8.0 0.00 0.05 0.05 37 1024.0
20211206232505 55 213 6.0 8.0 0.00 0.05 0.05 36 1024.0
20211206232005 56 173 6.0 9.0 0.00 0.05 0.05 36 1024.3
20211206231507 56 180 7.0 9.0 0.00 0.05 0.05 36 1024.0
20211206231004 56 180 6.0 9.0 0.00 0.05 0.05 36 1024.0
20211206230519 57 178 6.0 9.0 0.00 0.05 0.05 35 1023.9
20211206230005 57 187 5.0 12.0 0.00 0.05 0.05 34 1023.7
20211206225505 58 135 4.0 12.0 0.00 0.05 0.05 34 1023.7
20211206225005 58 203 7.0 10.0 0.00 0.05 0.05 35 1023.7
20211206224505 58 188 7.0 8.0 0.00 0.05 0.05 34 1023.4
20211206224004 58 196 7.0 10.0 0.00 0.05 0.05 34 1023.6
20211206223505 58 180 8.0 16.0 0.00 0.05 0.05 34 1023.4
20211206223005 59 315 10.0 16.0 0.00 0.05 0.05 34 1023.4
20211206222504 59 180 9.0 16.0 0.00 0.05 0.05 34 1023.4
20211206222005 60 128 8.0 10.0 0.00 0.05 0.05 34 1023.1
20211206221505 60 175 6.0 13.0 0.00 0.05 0.05 34 1023.0
20211206221005 60 158 9.0 13.0 0.00 0.05 0.05 34 1023.4
20211206220505 60 138 7.0 12.0 0.00 0.05 0.05 34 1023.4
20211206220020 60 180 7.0 12.0 0.00 0.05 0.05 34 1023.2
20211206215505 60 158 9.0 12.0 0.00 0.05 0.05 34 1023.0
20211206215004 60 180 10.0 13.0 0.00 0.05 0.05 34 1023.0
20211206214505 60 135 7.0 10.0 0.00 0.05 0.05 34 1023.0
20211206214005 61 180 8.0 12.0 0.00 0.05 0.05 34 1023.0
20211206213505 61 120 7.0 13.0 0.00 0.05 0.05 34 1023.0
20211206213006 60 158 11.0 13.0 0.00 0.05 0.05 34 1023.0
20211206212505 61 180 8.0 10.0 0.00 0.05 0.05 35 1023.0
20211206212005 62 135 7.0 12.0 0.00 0.05 0.05 35 1023.0
20211206211505 62 180 9.0 10.0 0.00 0.05 0.05 35 1023.0
20211206211005 62 164 5.0 8.0 0.00 0.05 0.05 35 1023.0
20211206210504 61 183 7.0 12.0 0.00 0.05 0.05 35 1023.0
20211206210004 61 158 9.0 17.0 0.00 0.05 0.05 35 1023.0
20211206205505 61 115 10.0 17.0 0.00 0.05 0.05 35 1023.0
20211206205005 62 145 6.0 12.0 0.00 0.05 0.05 35 1023.0
20211206204505 61 158 5.0 12.0 0.00 0.05 0.05 35 1023.0
20211206204005 61 158 7.0 10.0 0.00 0.05 0.05 36 1023.0
20211206203504 61 225 7.0 12.0 0.00 0.05 0.05 36 1023.0
20211206203005 61 167 13.0 14.0 0.00 0.05 0.05 37 1023.0
20211206202521 61 128 5.0 10.0 0.00 0.05 0.05 38 1023.0
20211206202005 60 135 7.0 10.0 0.00 0.05 0.05 38 1023.0
20211206201505 61 198 9.0 12.0 0.00 0.05 0.05 39 1023.0
20211206201006 60 151 8.0 12.0 0.00 0.05 0.05 38 1023.0
20211206200505 61 188 9.0 12.0 0.00 0.05 0.05 37 1023.0
20211206200004 61 203 8.0 10.0 0.00 0.05 0.05 38 1023.0
20211206195505 62 225 7.0 10.0 0.00 0.05 0.05 38 1023.0
20211206195005 62 176 9.0 10.0 0.00 0.05 0.05 38 1023.0
20211206194505 62 170 6.0 12.0 0.00 0.05 0.05 38 1023.0
20211206194005 61 195 7.0 14.0 0.00 0.05 0.05 38 1023.0
20211206193511 63 90 3.0 10.0 0.00 0.05 0.05 39 1023.0
20211206193005 63 135 7.0 10.0 0.00 0.05 0.05 38 1023.0
20211206192505 63 213 3.0 8.0 0.00 0.05 0.05 39 1023.0
20211206192005 62 202 7.0 10.0 0.00 0.05 0.05 41 1023.0
20211206191505 62 140 7.0 12.0 0.00 0.05 0.05 41 1023.0
20211206191005 62 203 11.0 12.0 0.00 0.05 0.05 41 1023.0
20211206190505 62 180 6.0 8.0 0.00 0.05 0.05 41 1023.0
20211206190004 61 166 7.0 12.0 0.00 0.05 0.05 41 1023.4